Simultaneous Nadir Overpasses (SNOs) Predictions

Prediction of SNOs between METOP-B and NOAA-19 Satellite Orbit:

Table of predicted SNOs for the next 14.0 days since TLE Epoch: 1/27/2016
Index Date (METOP-B) Time (METOP-B) Lat,Lon (METOP-B) SZA (METOP-B ) Date (NOAA-19) Time (NOAA-19) Lat,Lon (NOAA-19) SZA (NOAA-19 ) Distance(km) Time Diff (sec)
1 01/29/2016 09:47:05 -75.70,-147.69 86.32 01/29/2016 09:45:53 -75.71,-147.72 86.30 1.74 72
2 01/29/2016 10:37:45 75.70, 19.64 93.67 01/29/2016 10:36:55 75.69, 19.59 93.67 1.64 50
3 01/29/2016 11:28:27 -75.68,-173.10 86.36 01/29/2016 11:27:54 -75.66,-173.04 86.38 2.93 33
4 01/29/2016 12:19:07 75.68, -5.77 93.63 01/29/2016 12:18:57 75.68, -5.88 93.64 3.04 10
5 01/29/2016 13:09:49 -75.66, 161.49 86.40 01/29/2016 13:09:56 -75.65, 161.49 86.41 1.18 7
6 01/29/2016 14:00:29 75.66, -31.18 93.59 01/29/2016 14:00:58 75.62, -31.19 93.56 3.60 29
7 01/29/2016 14:51:11 -75.63, 136.08 86.44 01/29/2016 14:51:58 -75.63, 136.02 86.44 1.54 47
8 01/29/2016 15:41:51 75.63, -56.59 93.55 01/29/2016 15:43:00 75.61, -56.66 93.53 3.17 69
9 01/29/2016 16:32:44 -75.09, 109.11 86.97 01/29/2016 16:33:50 -75.16, 112.03 86.96 83.81 66
10 02/08/2016 23:10:40 -76.11, 12.67 89.03 02/08/2016 23:09:31 -76.10, 10.26 88.98 64.54 69
11 02/09/2016 00:01:28 75.73, 178.77 90.61 02/09/2016 00:00:28 75.75, 178.73 90.63 1.95 60
12 02/09/2016 00:52:10 -75.71, -13.96 89.42 02/09/2016 00:51:25 -75.73, -13.95 89.40 1.93 45
13 02/09/2016 01:42:50 75.71, 153.36 90.57 02/09/2016 01:42:29 75.69, 153.42 90.55 2.69 21
14 02/09/2016 02:33:32 -75.69, -39.37 89.47 02/09/2016 02:33:27 -75.72, -39.42 89.44 3.41 5
15 02/09/2016 03:24:12 75.69, 127.95 90.53 02/09/2016 03:24:31 75.68, 127.95 90.52 0.93 19
16 02/09/2016 04:14:54 -75.67, -64.78 89.51 02/09/2016 04:15:28 -75.66, -64.74 89.52 1.43 34
17 02/09/2016 05:05:34 75.67, 102.54 90.48 02/09/2016 05:06:33 75.67, 102.48 90.48 1.64 59
18 02/09/2016 05:56:16 -75.65, -90.19 89.55 02/09/2016 05:57:30 -75.65, -90.21 89.55 0.81 74




NCC Satellite Simultaneous Nadir Overpasses (SNOs) Prediction Service
